Regional Weather Roundup
Issued by NWS

Home | Current Version | Previous Version | Text Only | Print | Product List | Glossary On
Versions: 1 2 3 4 5 6 7 8 9 10 11 12 13 14 15 16 17 18 19 20 21 22 23 24 25 26 27 28 29 30 31 32 33 34 35 36 37 38 39 40 41 42 43 44 45 46 47 48 49 50
000
ASUS44 KJAN 230510
RWRMS

MISSISSIPPI HOURLY WEATHER ROUNDUP
NATIONAL WEATHER SERVICE JACKSON MS
1200 AM CDT THU OCT 23 2014

NOTE: "FAIR: INDICATES FEW OR NO CLOUDS BELOW 12,000 FEET WITH NO
SIGNIFICANT WEATHER AND/OR OBSTRUCTIONS TO VISIBILITY.

MSZ001>002-007>008-010>013-018>021-025>028-034>036-230600-
NORTHWEST MISSISSIPPI

CITY           SKY/WX    TMP DP  RH WIND       PRES   REMARKS
CLARKSDALE     FAIR      50  46  87 N3        30.19S
CLEVELAND      FAIR      49  47  91 N3        30.16F
GREENWOOD      CLEAR     47  45  93 NE3       30.15F
GREENVILLE     CLEAR     50  44  80 N6        30.16S
GRENADA          N/A    N/A N/A N/A MISG        N/A
OLIVE BRANCH   CLEAR     48  46  93 NE3       30.19R
OXFORD         FAIR      48  41  76 CALM      30.18S
TUNICA         CLEAR     45  41  87 N3        30.19S
$$

MSZ003>006-009-014>017-022>024-029>033-037>039-230600-
NORTHEAST MISSISSIPPI

CITY           SKY/WX    TMP DP  RH WIND       PRES   REMARKS
COLUMBUS AFB   CLEAR     43  42  95 N2        30.15F
CORINTH        FAIR      43  41  93 CALM      30.18S
GOLDN TRIANGLE CLEAR     46  41  81 N5        30.14F
STARKVILLE     FAIR      46  45  93 NE7       30.14F
TUPELO         CLEAR     46  42  86 NE5       30.15F
$$

MSZ040-058-230600-
CENTRAL MISSISSIPPI

CITY           SKY/WX    TMP DP  RH WIND       PRES   REMARKS
JACKSON INTL   CLEAR     54  46  74 NE3       30.14S
JACKSON HAWKNS CLEAR     57  47  69 VRB3      30.14S
MERIDIAN KEY   CLEAR     47  44  90 CALM      30.13F
MERIDIAN NAS   CLEAR     47  44  90 W3        30.13F
RAYMOND        FAIR      48  43  81 MISG      30.14S
VICKSBURG      CLEAR     51  47  86 NE5       30.14F
$$

MSZ059>079-230600-
SOUTH MISSISSIPPI

CITY           SKY/WX    TMP DP  RH WIND       PRES   REMARKS
BROOKHAVEN     FAIR      52  48  87 CALM      30.14F
COLUMBIA         N/A    N/A N/A N/A MISG        N/A
HATTIESBURG    CLEAR     52  47  83 CALM      30.11F
MCCOMB         CLEAR     58  48  69 N5        30.11F
NATCHEZ        CLEAR     52  46  82 CALM      30.12F
PINE BELT      CLEAR     54  45  71 NE9       30.11F
$$

MSZ080>082-230600-
COASTAL MISSISSIPPI

CITY           SKY/WX    TMP DP  RH WIND       PRES   REMARKS
BILOXI         CLEAR     59  48  67 NE6       30.09S
PASCAGOULA     CLEAR     49  46  90 N3        30.09F
GULFPORT       CLEAR     60  48  64 N5        30.08S
$$



USA.gov is the U.S. government's official web portal to all federal, state and local government web resources and services.